Regional Weather Roundup
Issued by NWS

Home | Current Version | Previous Version | Text Only | Print | Product List | Glossary On
Versions: 1 2 3 4 5 6 7 8 9 10 11 12 13 14 15 16 17 18 19 20 21 22 23 24 25 26 27 28 29 30 31 32 33 34 35 36 37 38 39 40 41 42 43 44 45 46 47 48 49 50
000
ASUS43 KTOP 072208
RWRKS

WEATHER ROUNDUP FOR KANSAS
NATIONAL WEATHER SERVICE GOODLAND KS
400 PM CST WED DEC 07 2016

NOTE:  "FAIR" INDICATES FEW OR NO CLOUDS BELOW 12,000 FEET WITH NO
SIGNIFICANT WEATHER AND/OR OBSTRUCTIONS TO VISIBILITY.

KSZ001>006-013>018-027>032-041>047-072300-
NORTHWEST KANSAS

CITY           SKY/WX    TMP DP  RH WIND       PRES   REMARKS
GOODLAND       LGT SNOW  16  10  77 N13       30.30R WCI   2
HAYS           CLOUDY    23  16  74 N14       30.37R WCI  11
HILL CITY      CLOUDY    22  13  68 N13       30.38R WCI  10
RUSSELL        CLOUDY    24  16  71 N9        30.36R
$$

KSZ061>065-074>080-084>089-072300-
SOUTHWEST KANSAS

CITY           SKY/WX    TMP DP  RH WIND       PRES   REMARKS
DODGE CITY     CLOUDY    23  18  81 N16       30.31R WCI  10
ELKHART          N/A     20   8  60 N10         N/A  WCI   9
GARDEN CITY    CLOUDY    21  15  78 N15       30.31R WCI   8
GREAT BEND     FLURRIES  25  18  74 N13       30.36R WCI  14
LIBERAL        CLOUDY    25  12  58 NE17      30.28R WCI  11
PRATT          CLOUDY    24  17  73 N14       30.33R WCI  12
$$

KSZ066>073-081>083-090>101-072300-
SOUTHEAST KANSAS

CITY           SKY/WX    TMP DP  RH WIND       PRES   REMARKS
CHANUTE        LGT SNOW  29  24  82 N13G24    30.32R WCI  19
COFFEYVILLE    CLOUDY    31  23  72 N17G24    30.31R WCI  19
HUTCHINSON     CLOUDY    26  20  77 N14G20    30.35R WCI  14
MEDICINE LODGE   N/A     29  20  69 NE16      30.31R WCI  17
NEWTON         CLOUDY    25  21  85 N15       30.34R WCI  13
PARSONS        CLOUDY    31  25  78 N14       30.32R WCI  21
WICHITA INTL   FLURRIES  29  21  72 N17       30.33R WCI  17
WICHITA JABRA  CLOUDY    28  23  81 N14       30.33R WCI  17
WICHITA MCCONL CLOUDY    29  22  74 N17       30.33R WCI  17
WINFIELD       CLOUDY    32  21  64 N20       30.32R WCI  20
$$

KSZ007>012-019>026-033>040-048>060-102>105-072300-
NORTHEAST KANSAS

CITY           SKY/WX    TMP DP  RH WIND       PRES   REMARKS
CONCORDIA      CLEAR     26  12  55 NW12      30.36R WCI  16
EMPORIA        CLOUDY    26  22  84 N10       30.34R WCI  16
LAWRENCE       PTCLDY    27  17  66 NW10      30.36R WCI  17
MANHATTAN      CLEAR     28  15  58 VRB5      30.37R
MARYSVILLE     PTCLDY    27   9  46 NW15      30.36R WCI  15
OLATHE IND     LGT SNOW  24  20  84 NW9       30.34R FOG
OLATHE EXE     LGT SNOW  24  20  84 NW8       30.33R FOG
SALINA         MOSUNNY   27  18  69 N12       30.38R WCI  17
TOPEKA BILLARD PTCLDY    28  18  66 NW9       30.36R
TOPEKA FORBES  CLEAR     28  18  66 NW12      30.35R WCI  18
$$



USA.gov is the U.S. government's official web portal to all federal, state and local government web resources and services.